📊 Raw Sensor Data

Showing records 51126 to 51150 of 85,144 total

ID Distance (ft) Battery V Battery A Int Temp (°F) Int Humid (%) Ext Temp (°F) Solar V RSSI SNR Time Stamp
34031 15.0 4.00 5 56 38 56 5.10 -75 8 03/04/2025 10:30 AM
34030 15.0 3.99 0 56 37 55 5.10 -76 8 03/04/2025 10:15 AM
34029 15.0 4.00 0 55 37 54 5.10 -76 8 03/04/2025 10:00 AM
34028 15.0 4.00 0 55 37 54 5.10 -76 8 03/04/2025 09:45 AM
34027 15.0 4.00 0 54 37 53 5.10 -74 7 03/04/2025 09:30 AM
34026 15.0 4.04 0 53 37 52 5.10 -75 8 03/04/2025 09:15 AM
34025 15.0 3.99 5 53 36 52 5.10 -75 8 03/04/2025 09:00 AM
34024 15.0 3.99 5 52 36 52 5.10 -77 8 03/04/2025 08:45 AM
34023 15.0 4.08 44 51 36 51 4.50 -76 8 03/04/2025 08:30 AM
34022 15.0 4.07 56 50 36 50 4.50 -76 8 03/04/2025 08:15 AM
34021 15.0 4.03 22 49 36 50 4.50 -77 8 03/04/2025 08:00 AM
34020 15.0 4.03 8 49 36 49 4.50 -76 7 03/04/2025 07:45 AM
34019 15.0 3.97 14 47 36 48 4.50 -77 8 03/04/2025 07:30 AM
34018 14.9 3.91 0 46 37 48 4.50 -76 8 03/04/2025 07:15 AM
34017 14.9 3.97 0 45 37 47 4.50 -75 8 03/04/2025 07:00 AM
34016 14.9 3.90 -6 44 37 46 4.50 -76 8 03/04/2025 06:45 AM
34015 14.9 3.89 -10 43 38 45 3.20 -75 7 03/04/2025 06:30 AM
34014 14.9 3.91 -5 42 38 44 1.70 -77 8 03/04/2025 06:15 AM
34013 14.9 3.91 -5 41 38 42 0.00 -77 8 03/04/2025 06:00 AM
34012 14.9 3.91 -5 41 38 43 0.00 -76 8 03/04/2025 05:45 AM
34011 14.9 3.91 -5 41 38 42 0.00 -77 8 03/04/2025 05:30 AM
34010 14.9 3.91 -5 41 38 43 0.00 -77 8 03/04/2025 05:15 AM
34009 14.9 3.91 -5 41 38 43 0.00 -77 8 03/04/2025 05:00 AM
34008 14.9 3.97 -5 41 38 43 0.00 -77 8 03/04/2025 04:45 AM
34007 14.9 3.97 -5 41 38 43 0.00 -77 7 03/04/2025 04:30 AM